Location: Castelbiague
(43.0361°N, 0.9246°E)
Time: 15:05:52
(UTC+00:00)

ATLAS CENTAUR R/B - Pass Details

Date: 17 June 2021
Orbit: 472 x 671 km, 64.6° (Epoch: 03 August)

Event Time Altitude Azimuth Distance (km) Brightness Sun altitude
Rises 21:39:46 0° 330° (NNW) 2,785 6.8 -16.4°
Reaches altitude 10° 21:42:00 10° 336° (NNW) 1,917 5.4 -16.6°
Maximum altitude 21:46:13 47° 52° (NE) 813 2.2 -17.0°
Enters shadow 21:48:21 27° 111° (ESE) 1,216 2.6 -17.2°
